Time,TemperatureF,DewpointF,PressureIn,WindDirection,WindDirectionDegrees,WindSpeedMPH,WindSpeedGustMPH,Humidity,HourlyPrecipIn,Conditions,Clouds,dailyrainin,SoftwareType,DateUTC
2013-05-01 00:13:00,68.5,60.0,30.03,NNE,30,0.0,2.0,75,0.00,,,0.00,weatherlink.com 1.10,2013-05-01 04:13:00,
2013-05-01 00:28:00,67.9,60.0,30.03,South,172,1.0,2.0,75,0.00,,,0.00,weatherlink.com 1.10,2013-05-01 04:28:00,
2013-05-01 00:43:00,67.6,60.0,30.03,East,96,0.0,3.0,76,0.00,,,0.00,weatherlink.com 1.10,2013-05-01 04:43:00,
2013-05-01 00:58:00,66.9,59.0,30.04,SE,134,0.0,2.0,77,0.00,,,0.00,weatherlink.com 1.10,2013-05-01 04:58:00,
2013-05-01 01:13:00,66.6,59.0,30.04,SE,146,0.0,3.0,77,0.00,,,0.00,weatherlink.com 1.10,2013-05-01 05:13:00,
2013-05-01 01:28:00,66.2,59.0,30.04,ESE,118,2.0,2.0,77,0.00,,,0.00,weatherlink.com 1.10,2013-05-01 05:28:00,
2013-05-01 01:43:00,65.9,59.0,30.05,SE,138,0.0,2.0,78,0.00,,,0.00,weatherlink.com 1.10,2013-05-01 05:43:00,
2013-05-01 01:58:00,65.2,58.0,30.05,ESE,108,0.0,1.0,78,0.00,,,0.00,weatherlink.com 1.10,2013-05-01 05:58:00,
2013-05-01 02:13:00,65.0,58.0,30.05,SE,125,0.0,1.0,78,0.00,,,0.00,weatherlink.com 1.10,2013-05-01 06:13:00,
2013-05-01 02:28:00,64.3,57.0,30.06,ESE,107,0.0,1.0,78,0.00,,,0.00,weatherlink.com 1.10,2013-05-01 06:28:00,
2013-05-01 02:43:00,63.7,57.0,30.06,ESE,123,0.0,0.0,80,0.00,,,0.00,weatherlink.com 1.10,2013-05-01 06:43:00,
2013-05-01 02:58:00,62.6,57.0,30.06,ESE,122,0.0,0.0,81,0.00,,,0.00,weatherlink.com 1.10,2013-05-01 06:58:00,
2013-05-01 03:13:00,61.6,56.0,30.06,ESE,122,0.0,0.0,83,0.00,,,0.00,weatherlink.com 1.10,2013-05-01 07:13:00,
2013-05-01 03:28:00,61.0,56.0,30.06,ESE,123,0.0,0.0,84,0.00,,,0.00,weatherlink.com 1.10,2013-05-01 07:28:00,
2013-05-01 03:43:00,60.5,56.0,30.07,ESE,123,0.0,0.0,84,0.00,,,0.00,weatherlink.com 1.10,2013-05-01 07:43:00,
2013-05-01 03:58:00,60.2,55.0,30.07,ESE,123,0.0,0.0,84,0.00,,,0.00,weatherlink.com 1.10,2013-05-01 07:58:00,
2013-05-01 04:13:00,60.3,56.0,30.08,SSE,153,0.0,0.0,84,0.00,,,0.00,weatherlink.com 1.10,2013-05-01 08:13:00,
2013-05-01 04:28:00,60.8,55.0,30.08,SE,139,0.0,1.0,82,0.00,,,0.00,weatherlink.com 1.10,2013-05-01 08:28:00,
2013-05-01 04:43:00,60.7,55.0,30.09,SE,134,0.0,1.0,82,0.00,,,0.00,weatherlink.com 1.10,2013-05-01 08:43:00,
2013-05-01 04:58:00,60.1,55.0,30.09,SE,134,0.0,0.0,82,0.00,,,0.00,weatherlink.com 1.10,2013-05-01 08:58:00,
2013-05-01 05:13:00,60.0,55.0,30.10,SE,128,0.0,1.0,82,0.00,,,0.00,weatherlink.com 1.10,2013-05-01 09:13:00,
2013-05-01 05:28:00,59.7,54.0,30.11,SE,127,0.0,1.0,82,0.00,,,0.00,weatherlink.com 1.10,2013-05-01 09:28:00,
2013-05-01 05:43:00,59.6,54.0,30.11,SE,127,0.0,0.0,82,0.00,,,0.00,weatherlink.com 1.10,2013-05-01 09:43:00,
2013-05-01 05:59:00,59.1,54.0,30.12,ENE,60,0.0,1.0,83,0.00,,,0.00,weatherlink.com 1.10,2013-05-01 09:59:00,
2013-05-01 06:14:00,58.8,54.0,30.12,East,93,0.0,1.0,83,0.00,,,0.00,weatherlink.com 1.10,2013-05-01 10:14:00,
2013-05-01 06:29:00,59.7,54.0,30.12,SE,141,0.0,1.0,82,0.00,,,0.00,weatherlink.com 1.10,2013-05-01 10:29:00,
2013-05-01 06:44:00,59.5,54.0,30.13,NNE,29,0.0,0.0,81,0.00,,,0.00,weatherlink.com 1.10,2013-05-01 10:44:00,
2013-05-01 06:59:00,59.9,54.0,30.13,SSE,158,0.0,3.0,81,0.00,,,0.00,weatherlink.com 1.10,2013-05-01 10:59:00,
2013-05-01 07:14:00,60.7,54.0,30.14,SE,141,0.0,2.0,79,0.00,,,0.00,weatherlink.com 1.10,2013-05-01 11:14:00,
2013-05-01 07:29:00,60.9,54.0,30.14,ESE,113,0.0,1.0,79,0.00,,,0.00,weatherlink.com 1.10,2013-05-01 11:29:00,
2013-05-01 07:44:00,61.2,54.0,30.15,SSE,148,0.0,1.0,78,0.00,,,0.00,weatherlink.com 1.10,2013-05-01 11:44:00,
2013-05-01 07:59:00,61.7,54.0,30.15,SE,134,0.0,1.0,77,0.00,,,0.00,weatherlink.com 1.10,2013-05-01 11:59:00,
2013-05-01 08:14:00,62.6,55.0,30.16,ESE,121,0.0,1.0,76,0.00,,,0.00,weatherlink.com 1.10,2013-05-01 12:14:00,
2013-05-01 08:29:00,63.8,55.0,30.16,SE,139,0.0,1.0,74,0.00,,,0.00,weatherlink.com 1.10,2013-05-01 12:29:00,
2013-05-01 08:44:00,64.9,55.0,30.16,SW,217,0.0,3.0,71,0.00,,,0.00,weatherlink.com 1.10,2013-05-01 12:44:00,
2013-05-01 08:59:00,66.3,56.0,30.16,ESE,115,0.0,2.0,69,0.00,,,0.00,weatherlink.com 1.10,2013-05-01 12:59:00,
2013-05-01 09:14:00,67.9,57.0,30.16,SE,141,0.0,1.0,68,0.00,,,0.00,weatherlink.com 1.10,2013-05-01 13:14:00,
2013-05-01 09:29:00,70.0,57.0,30.17,SSW,208,0.0,1.0,64,0.00,,,0.00,weatherlink.com 1.10,2013-05-01 13:29:00,
2013-05-01 09:44:00,73.3,57.0,30.17,SSW,194,2.0,2.0,58,0.00,,,0.00,weatherlink.com 1.10,2013-05-01 13:44:00,
2013-05-01 09:59:00,75.6,58.0,30.17,East,91,0.0,2.0,55,0.00,,,0.00,weatherlink.com 1.10,2013-05-01 13:59:00,
2013-05-01 10:14:00,77.6,58.0,30.17,WSW,252,0.0,3.0,52,0.00,,,0.00,weatherlink.com 1.10,2013-05-01 14:14:00,
2013-05-01 10:29:00,78.0,58.0,30.17,West,262,1.0,2.0,50,0.00,,,0.00,weatherlink.com 1.10,2013-05-01 14:29:00,
2013-05-01 10:44:00,78.6,57.0,30.17,West,260,1.0,3.0,47,0.00,,,0.00,weatherlink.com 1.10,2013-05-01 14:44:00,
2013-05-01 10:59:00,80.0,57.0,30.17,SW,226,0.0,2.0,46,0.00,,,0.00,weatherlink.com 1.10,2013-05-01 14:59:00,
2013-05-01 11:14:00,81.3,57.0,30.17,West,265,0.0,2.0,44,0.00,,,0.00,weatherlink.com 1.10,2013-05-01 15:14:00,
2013-05-01 11:29:00,81.3,58.0,30.17,SSW,194,1.0,3.0,45,0.00,,,0.00,weatherlink.com 1.10,2013-05-01 15:29:00,
2013-05-01 11:44:00,82.0,58.0,30.17,West,266,2.0,3.0,44,0.00,,,0.00,weatherlink.com 1.10,2013-05-01 15:44:00,
2013-05-01 11:59:00,83.2,58.0,30.17,SE,125,0.0,3.0,43,0.00,,,0.00,weatherlink.com 1.10,2013-05-01 15:59:00,
2013-05-01 12:14:00,85.0,57.0,30.17,SE,143,1.0,6.0,39,0.00,,,0.00,weatherlink.com 1.10,2013-05-01 16:14:00,
2013-05-01 12:29:00,85.3,58.0,30.18,East,84,3.0,5.0,40,0.00,,,0.00,weatherlink.com 1.10,2013-05-01 16:29:00,
2013-05-01 12:45:00,84.2,56.0,30.17,WSW,252,2.0,3.0,38,0.00,,,0.00,weatherlink.com 1.10,2013-05-01 16:45:00,
2013-05-01 13:00:00,85.4,57.0,30.17,North,355,0.0,5.0,38,0.00,,,0.00,weatherlink.com 1.10,2013-05-01 17:00:00,
2013-05-01 13:15:00,86.1,57.0,30.17,ESE,120,0.0,3.0,37,0.00,,,0.00,weatherlink.com 1.10,2013-05-01 17:15:00,
2013-05-01 13:30:00,85.4,58.0,30.16,SSE,165,0.0,6.0,39,0.00,,,0.00,weatherlink.com 1.10,2013-05-01 17:30:00,
2013-05-01 13:45:00,87.2,58.0,30.16,NE,34,1.0,5.0,37,0.00,,,0.00,weatherlink.com 1.10,2013-05-01 17:45:00,
2013-05-01 14:00:00,86.6,57.0,30.16,North,354,0.0,5.0,36,0.00,,,0.00,weatherlink.com 1.10,2013-05-01 18:00:00,
2013-05-01 14:15:00,87.0,56.0,30.16,ESE,122,1.0,5.0,35,0.00,,,0.00,weatherlink.com 1.10,2013-05-01 18:15:00,
2013-05-01 14:30:00,87.0,57.0,30.16,ESE,119,2.0,4.0,36,0.00,,,0.00,weatherlink.com 1.10,2013-05-01 18:30:00,
2013-05-01 14:45:00,87.2,56.0,30.16,SSE,150,1.0,8.0,35,0.00,,,0.00,weatherlink.com 1.10,2013-05-01 18:45:00,
2013-05-01 15:00:00,86.6,56.0,30.16,ESE,120,0.0,4.0,35,0.00,,,0.00,weatherlink.com 1.10,2013-05-01 19:00:00,
2013-05-01 15:15:00,86.3,56.0,30.16,SSE,165,2.0,5.0,36,0.00,,,0.00,weatherlink.com 1.10,2013-05-01 19:15:00,
2013-05-01 15:30:00,86.8,57.0,30.16,SSE,148,1.0,3.0,36,0.00,,,0.00,weatherlink.com 1.10,2013-05-01 19:30:00,
2013-05-01 15:45:00,86.3,55.0,30.16,East,91,2.0,6.0,34,0.00,,,0.00,weatherlink.com 1.10,2013-05-01 19:45:00,
2013-05-01 16:00:00,85.6,54.0,30.16,South,179,0.0,7.0,34,0.00,,,0.00,weatherlink.com 1.10,2013-05-01 20:00:00,
2013-05-01 16:15:00,86.1,55.0,30.16,South,188,1.0,7.0,35,0.00,,,0.00,weatherlink.com 1.10,2013-05-01 20:15:00,
2013-05-01 16:30:00,85.8,55.0,30.16,SSE,149,0.0,6.0,35,0.00,,,0.00,weatherlink.com 1.10,2013-05-01 20:30:00,
2013-05-01 16:45:00,86.8,55.0,30.16,ESE,122,2.0,6.0,34,0.00,,,0.00,weatherlink.com 1.10,2013-05-01 20:45:00,
2013-05-01 17:00:00,87.0,56.0,30.16,South,190,3.0,5.0,35,0.00,,,0.00,weatherlink.com 1.10,2013-05-01 21:00:00,
2013-05-01 17:15:00,86.6,56.0,30.16,South,177,0.0,6.0,35,0.00,,,0.00,weatherlink.com 1.10,2013-05-01 21:15:00,
2013-05-01 17:30:00,85.9,56.0,30.17,NE,39,2.0,5.0,36,0.00,,,0.00,weatherlink.com 1.10,2013-05-01 21:30:00,
2013-05-01 17:45:00,85.6,55.0,30.17,ENE,58,1.0,9.0,35,0.00,,,0.00,weatherlink.com 1.10,2013-05-01 21:45:00,
2013-05-01 18:00:00,84.7,56.0,30.17,NNW,348,1.0,7.0,37,0.00,,,0.00,weatherlink.com 1.10,2013-05-01 22:00:00,
2013-05-01 18:15:00,84.6,56.0,30.16,SE,143,1.0,8.0,38,0.00,,,0.00,weatherlink.com 1.10,2013-05-01 22:15:00,
2013-05-01 18:30:00,84.2,56.0,30.16,SE,145,2.0,6.0,38,0.00,,,0.00,weatherlink.com 1.10,2013-05-01 22:30:00,
2013-05-01 18:45:00,84.0,56.0,30.16,East,91,2.0,7.0,39,0.00,,,0.00,weatherlink.com 1.10,2013-05-01 22:45:00,
2013-05-01 19:00:00,83.3,57.0,30.16,SSW,210,1.0,6.0,40,0.00,,,0.00,weatherlink.com 1.10,2013-05-01 23:00:00,
2013-05-01 19:15:00,82.9,57.0,30.15,East,100,1.0,6.0,41,0.00,,,0.00,weatherlink.com 1.10,2013-05-01 23:15:00,
2013-05-01 19:30:00,82.0,57.0,30.16,ESE,112,0.0,5.0,42,0.00,,,0.00,weatherlink.com 1.10,2013-05-01 23:30:00,
2013-05-01 19:45:00,81.0,57.0,30.16,South,171,0.0,6.0,44,0.00,,,0.00,weatherlink.com 1.10,2013-05-01 23:45:00,
2013-05-01 20:00:00,80.3,57.0,30.16,SE,124,0.0,3.0,45,0.00,,,0.00,weatherlink.com 1.10,2013-05-02 00:00:00,
2013-05-01 20:15:00,79.9,57.0,30.17,ESE,121,0.0,2.0,45,0.00,,,0.00,weatherlink.com 1.10,2013-05-02 00:15:00,
2013-05-01 20:30:00,78.8,57.0,30.16,SE,134,0.0,1.0,48,0.00,,,0.00,weatherlink.com 1.10,2013-05-02 00:30:00,
2013-05-01 20:45:00,77.8,57.0,30.17,SSE,167,1.0,3.0,49,0.00,,,0.00,weatherlink.com 1.10,2013-05-02 00:45:00,
2013-05-01 21:00:00,76.8,57.0,30.18,ESE,111,0.0,1.0,51,0.00,,,0.00,weatherlink.com 1.10,2013-05-02 01:00:00,
2013-05-01 21:15:00,75.4,57.0,30.18,SE,138,0.0,0.0,53,0.00,,,0.00,weatherlink.com 1.10,2013-05-02 01:15:00,
2013-05-01 21:30:00,73.8,57.0,30.18,SE,139,0.0,0.0,56,0.00,,,0.00,weatherlink.com 1.10,2013-05-02 01:30:00,
2013-05-01 21:45:00,72.8,57.0,30.19,SE,139,0.0,0.0,58,0.00,,,0.00,weatherlink.com 1.10,2013-05-02 01:45:00,
2013-05-01 22:00:00,72.0,57.0,30.19,SSE,149,0.0,0.0,60,0.00,,,0.00,weatherlink.com 1.10,2013-05-02 02:00:00,
2013-05-01 22:15:00,71.3,57.0,30.19,SSE,149,0.0,0.0,61,0.00,,,0.00,weatherlink.com 1.10,2013-05-02 02:15:00,
2013-05-01 22:30:00,70.8,57.0,30.19,SSE,149,0.0,0.0,63,0.00,,,0.00,weatherlink.com 1.10,2013-05-02 02:30:00,
2013-05-01 22:45:00,70.1,57.0,30.19,SSE,149,0.0,0.0,64,0.00,,,0.00,weatherlink.com 1.10,2013-05-02 02:45:00,
2013-05-01 23:00:00,69.5,57.0,30.19,SSE,149,0.0,0.0,65,0.00,,,0.00,weatherlink.com 1.10,2013-05-02 03:00:00,
2013-05-01 23:15:00,69.0,57.0,30.19,SSE,149,0.0,0.0,66,0.00,,,0.00,weatherlink.com 1.10,2013-05-02 03:15:00,
2013-05-01 23:30:00,69.0,58.0,30.19,SE,132,0.0,0.0,67,0.00,,,0.00,weatherlink.com 1.10,2013-05-02 03:30:00,
2013-05-01 23:45:00,68.4,57.0,30.19,SE,132,0.0,0.0,68,0.00,,,0.00,weatherlink.com 1.10,2013-05-02 03:45:00,